LVLHI SADF-SAEZ

Flight info

Callsign LVLHI
Flight time 0h 15m
Altitude 5000
Route PAL DCT ARSOT
Aircraft BE58/L-SDFGRY/C

Departure

Time 2026-04-24 20:08
Airport San Fernando Airport (SADF)

Arrival

Time 2026-04-24 20:24
Airport Ezeiza International Airport - Ministro Pistarini (SAEZ)
Time Latitude Longitude Altitude Speed Heading
2026-04-24 19:44 -34.45881 -58.59129 21 ft 0 kts 241°
2026-04-24 20:01 -34.45884 -58.59137 21 ft 5 kts 241°
2026-04-24 20:02 -34.45883 -58.59159 21 ft 5 kts 308°
2026-04-24 20:02 -34.45857 -58.59201 21 ft 6 kts 246°
2026-04-24 20:02 -34.45887 -58.59270 21 ft 13 kts 242°
2026-04-24 20:02 -34.45935 -58.59381 21 ft 16 kts 245°
2026-04-24 20:03 -34.45988 -58.59509 22 ft 18 kts 243°
2026-04-24 20:03 -34.46030 -58.59611 21 ft 0 kts 256°
2026-04-24 20:06 -34.46031 -58.59617 21 ft 5 kts 268°
2026-04-24 20:07 -34.46013 -58.59665 21 ft 6 kts 315°
2026-04-24 20:07 -34.45945 -58.59664 22 ft 13 kts 47°
2026-04-24 20:07 -34.45760 -58.59445 22 ft 69 kts 44°
2026-04-24 20:07 -34.45307 -58.58916 59 ft 106 kts 44°
2026-04-24 20:08 -34.44739 -58.58272 303 ft 117 kts 43°
2026-04-24 20:08 -34.43979 -58.58060 561 ft 126 kts 336°
2026-04-24 20:08 -34.43565 -58.58582 654 ft 133 kts 293°
2026-04-24 20:08 -34.43903 -58.59993 661 ft 148 kts 234°
2026-04-24 20:09 -34.44175 -58.60745 892 ft 144 kts 253°
2026-04-24 20:09 -34.44723 -58.61749 1259 ft 150 kts 212°
2026-04-24 20:09 -34.45730 -58.62071 1658 ft 153 kts 186°
2026-04-24 20:09 -34.47132 -58.62380 2149 ft 156 kts 204°
2026-04-24 20:10 -34.47694 -58.62943 2413 ft 157 kts 235°
2026-04-24 20:10 -34.48252 -58.64072 2791 ft 159 kts 244°
2026-04-24 20:10 -34.48826 -58.65249 3176 ft 165 kts 240°
2026-04-24 20:10 -34.49450 -58.66414 3550 ft 168 kts 239°
2026-04-24 20:11 -34.50092 -58.67605 3928 ft 169 kts 239°
2026-04-24 20:11 -34.50743 -58.68810 4301 ft 171 kts 239°
2026-04-24 20:11 -34.51398 -58.70020 4684 ft 170 kts 240°
2026-04-24 20:11 -34.52055 -58.71234 4992 ft 177 kts 239°
2026-04-24 20:12 -34.52762 -58.72549 4981 ft 192 kts 240°
2026-04-24 20:12 -34.53510 -58.73935 4989 ft 201 kts 239°
2026-04-24 20:12 -34.54292 -58.75378 4985 ft 206 kts 239°
2026-04-24 20:12 -34.55082 -58.76842 4986 ft 209 kts 239°
2026-04-24 20:13 -34.55885 -58.78293 4980 ft 210 kts 234°
2026-04-24 20:13 -34.57011 -58.79438 4990 ft 213 kts 211°
2026-04-24 20:13 -34.58371 -58.80191 4999 ft 213 kts 205°
2026-04-24 20:13 -34.59719 -58.80916 4999 ft 215 kts 206°
2026-04-24 20:14 -34.61085 -58.81657 4997 ft 215 kts 205°
2026-04-24 20:14 -34.62452 -58.82396 5000 ft 215 kts 205°
2026-04-24 20:14 -34.63819 -58.83131 4996 ft 213 kts 205°
2026-04-24 20:14 -34.65161 -58.83858 5006 ft 213 kts 206°
2026-04-24 20:15 -34.66529 -58.84599 4990 ft 215 kts 206°
2026-04-24 20:15 -34.67873 -58.85328 5000 ft 203 kts 206°
2026-04-24 20:15 -34.69125 -58.86005 4984 ft 188 kts 206°
2026-04-24 20:15 -34.70289 -58.86633 4993 ft 183 kts 206°
2026-04-24 20:16 -34.71445 -58.87260 4993 ft 180 kts 206°
2026-04-24 20:16 -34.72589 -58.87880 5002 ft 179 kts 206°
2026-04-24 20:16 -34.73781 -58.88259 4978 ft 180 kts 182°
2026-04-24 20:16 -34.75030 -58.87973 4811 ft 188 kts 156°
2026-04-24 20:17 -34.76086 -58.87028 4615 ft 190 kts 128°
2026-04-24 20:17 -34.76947 -58.84068 4152 ft 191 kts 98°
2026-04-24 20:17 -34.77209 -58.82423 3859 ft 197 kts 98°
2026-04-24 20:18 -34.77383 -58.81353 3672 ft 198 kts 98°
2026-04-24 20:18 -34.77732 -58.79134 3290 ft 200 kts 96°
2026-04-24 20:18 -34.77953 -58.77480 2995 ft 192 kts 98°
2026-04-24 20:18 -34.78211 -58.75957 2692 ft 178 kts 99°
2026-04-24 20:19 -34.78481 -58.74486 2377 ft 178 kts 99°
2026-04-24 20:19 -34.78735 -58.73050 2209 ft 168 kts 99°
2026-04-24 20:19 -34.78974 -58.71709 2188 ft 157 kts 99°
2026-04-24 20:19 -34.79202 -58.70433 2180 ft 153 kts 99°
2026-04-24 20:20 -34.79427 -58.69167 2192 ft 153 kts 99°
2026-04-24 20:20 -34.79656 -58.67888 2088 ft 154 kts 99°
2026-04-24 20:20 -34.79882 -58.66640 1900 ft 151 kts 100°
2026-04-24 20:20 -34.80107 -58.65397 1701 ft 148 kts 99°
2026-04-24 20:21 -34.80315 -58.64210 1510 ft 136 kts 99°
2026-04-24 20:21 -34.80506 -58.63149 1330 ft 123 kts 99°
2026-04-24 20:21 -34.80654 -58.62327 1198 ft 117 kts 99°
2026-04-24 20:21 -34.80820 -58.61384 1046 ft 113 kts 98°
2026-04-24 20:22 -34.80982 -58.60483 918 ft 102 kts 99°
2026-04-24 20:22 -34.81119 -58.59678 770 ft 94 kts 97°
2026-04-24 20:22 -34.81277 -58.58927 645 ft 90 kts 100°
2026-04-24 20:22 -34.81407 -58.58184 593 ft 91 kts 97°
2026-04-24 20:23 -34.81524 -58.57428 482 ft 91 kts 101°
2026-04-24 20:23 -34.81667 -58.56667 284 ft 96 kts 99°
2026-04-24 20:23 -34.81813 -58.55858 194 ft 94 kts 99°
2026-04-24 20:23 -34.81936 -58.55131 76 ft 75 kts 99°
2026-04-24 20:24 -34.82029 -58.54642 76 ft 50 kts 103°
2026-04-24 20:24 -34.82092 -58.54284 77 ft 37 kts 103°
2026-04-24 20:24 -34.82141 -58.54009 70 ft 29 kts 94°
2026-04-24 20:24 -34.82069 -58.53831 72 ft 15 kts 44°
2026-04-24 20:25 -34.82060 -58.53821 69 ft 0 kts 44°
2026-04-24 20:27 -34.82050 -58.53809 71 ft 7 kts 45°
2026-04-24 20:28 -34.81993 -58.53740 66 ft 16 kts 45°
2026-04-24 20:28 -34.81929 -58.53663 66 ft 7 kts 44°
2026-04-24 20:28 -34.81876 -58.53646 69 ft 12 kts 347°
2026-04-24 20:28 -34.81784 -58.53692 69 ft 13 kts 333°
2026-04-24 20:29 -34.81734 -58.53732 69 ft 13 kts 336°
2026-04-24 20:29 -34.81636 -58.53764 68 ft 9 kts 24°
2026-04-24 20:29 -34.81587 -58.53724 69 ft 8 kts 45°
2026-04-24 20:29 -34.81552 -58.53683 68 ft 6 kts 36°
2026-04-24 20:30 -34.81518 -58.53659 69 ft 5 kts 28°
2026-04-24 20:30 -34.81490 -58.53640 69 ft 4 kts 30°
2026-04-24 20:30 -34.81467 -58.53626 69 ft 3 kts 18°
2026-04-24 20:30 -34.81448 -58.53618 69 ft 5 kts 18°
2026-04-24 20:31 -34.81379 -58.53593 67 ft 15 kts
2026-04-24 20:31 -34.81249 -58.53591 70 ft 23 kts 359°
2026-04-24 20:31 -34.81099 -58.53554 66 ft 19 kts 350°
2026-04-24 20:31 -34.80961 -58.53601 70 ft 22 kts 343°
2026-04-24 20:32 -34.80801 -58.53656 70 ft 25 kts 343°
2026-04-24 20:32 -34.80636 -58.53715 69 ft 23 kts 344°
2026-04-24 20:32 -34.80493 -58.53732 69 ft 20 kts
2026-04-24 20:32 -34.80373 -58.53691 69 ft 16 kts 21°
2026-04-24 20:33 -34.80306 -58.53606 66 ft 12 kts 50°
2026-04-24 20:33 -34.80252 -58.53539 65 ft 10 kts 41°
2026-04-24 20:33 -34.80206 -58.53486 66 ft 10 kts 48°
2026-04-24 20:33 -34.80124 -58.53380 64 ft 21 kts 43°
2026-04-24 20:34 -34.80024 -58.53260 68 ft 19 kts 46°
2026-04-24 20:34 -34.79936 -58.53149 66 ft 17 kts 45°
2026-04-24 20:34 -34.79857 -58.53054 69 ft 15 kts 46°
2026-04-24 20:34 -34.79772 -58.52948 67 ft 18 kts 44°
2026-04-24 20:35 -34.79748 -58.52839 68 ft 15 kts 131°
2026-04-24 20:35 -34.79790 -58.52781 68 ft 0 kts 139°
2026-04-24 20:36 -34.79806 -58.52764 69 ft 10 kts 138°
2026-04-24 20:36 -34.79882 -58.52662 65 ft 22 kts 137°
2026-04-24 20:36 -34.79935 -58.52569 65 ft 7 kts 27°
2026-04-24 20:36 -34.79874 -58.52598 69 ft 8 kts 295°
2026-04-24 20:37 -34.79877 -58.52614 67 ft 0 kts 220°